Location: Cossonay
(46.5833°N, 6.4167°E)
Time: 21:24:25
(UTC+00:00)

STARLINK-1257 - Pass Details

Date: 08 October 2020
Orbit: 549 x 550 km, 53.0° (Epoch: 22 October)

Event Time Altitude Azimuth Distance (km) Brightness Sun altitude
Exits shadow 04:22:21 23° 287° (WNW) 1,180 4.8 -14.6°
Maximum altitude 04:24:27 42° 344° (NNW) 794 4.3 -14.2°
Drops below altitude 10° 04:28:25 10° 57° (ENE) 1,827 7.3 -13.6°
Sets 04:30:45 0° 64° (ENE) 2,722 8.6 -13.2°
